AirNav   Everest Fuels
 
 1060 users online  

60PN Jefferson Hospital Heliport
Large, Pennsylvania, USA

GOING TO LARGE?


FAA INFORMATION EFFECTIVE 18 JUNE 2020

Location

FAA Identifier: 60PN
Lat/Long: 40-19-05.5500N 079-56-02.5800W
40-19.092500N 079-56.043000W
40.3182083,-79.9340500
(estimated)
Elevation: 1156 ft. / 352 m (estimated)
Variation: 08W (1985)
From city: 4 miles NNW of LARGE, PA
Time zone: UTC -4 (UTC -5 during Standard Time)
Zip code: 15122

Heliport Operations

Heliport use: Private use, MEDICAL USE.
Activation date: 12/1980
Control tower: no
ARTCC: CLEVELAND CENTER
FSS: ALTOONA FLIGHT SERVICE STATION
Attendance: CONTINUOUS
Wind indicator: yes
Segmented circle: yes

Heliport Communications

WX ASOS at AGC (2.2 nm N): 120.55 (412-466-8968)
WX AWOS-3 at FWQ (8 nm SE): 118.475 (724-379-5815)
WX AWOS-A at 42PN (9 nm N): PHONE 412-442-2213
WX ASOS at PIT (17 nm NW): PHONE 412-472-0145
WX AWOS-3PT at AFJ (20 nm SW): 119.175 (724-228-3529)

Nearby radio navigation aids

VOR radial/distance  VOR name  Freq  Var
AGCr073/5.4ALLEGHENY VOR/DME110.0009W
HLGr090/29.3WHEELING VOR/DME112.2007W
EWCr165/32.9ELLWOOD CITY VOR/DME115.8008W
IHDr314/33.5INDIAN HEAD VORTAC108.2006W

Heliport Services

Runway Information

Helipad H1

Dimensions: 70 x 70 ft. / 21 x 21 m
Surface: asphalt
Latitude: 40-19.092500N
Longitude: 079-56.043000W
Elevation: 1156.0 ft.
Traffic pattern: leftleft

Heliport Ownership and Management from official FAA records

Ownership: Privately-owned
Owner: JEFFERSON REGIONAL MEDICAL CENTER
COAL VALLEY RD, PO BOX 18119
PITTSBURGH, PA 15236
Phone 412-469-5000
EXTN 12.
Manager: RICHARD J. PREFFER
565 COAL VALLEY ROAD
PITTSBURGH, PA 15236
Phone (412) 469-5078

Heliport Operational Statistics

Aircraft based on the field: 1
Helicopters: 1
    

Additional Remarks

FOR CD CTC PITTSBURGH APCH AT 412-472-5591

Instrument Procedures

There are no published instrument procedures at 60PN.

Some nearby airports with instrument procedures:

KAGC - Allegheny County Airport (2 nm N)
G05 - Finleyville Airpark (6 nm SW)
KFWQ - Rostraver Airport (8 nm SE)
KPIT - Pittsburgh International Airport (17 nm NW)
KAFJ - Washington County Airport (20 nm SW)
 
Loc | Ops | Rwys | IFR | FBO | Links
Com | Nav | Svcs | Stats | Notes
Area around 60PN (Jefferson Hospital Heliport)
 
Road maps at: MapQuest Bing Google
 
Aerial photo
No photo
 
Sectional chart

 
Airport distance calculator
Flying to Jefferson Hospital Heliport? Find the distance to fly.

From to 60PN

Sunrise and sunset
Times for 02-Jul-2020
 Local
(UTC-4)
 Zulu
(UTC)
Morning civil twilight05:2309:23
Sunrise05:5609:56
Sunset20:5200:52
Evening civil twilight21:2501:25

Current date and time
Zulu (UTC)  02-Jul-2020 21:58:41
Local (UTC-4)  02-Jul-2020 17:58:41
 
METAR
KAGC 
2nm NE 
022153Z 01006KT 10SM SCT070 31/15 A2996 RMK AO2 SLP139 T03060150
KP53 
8nm SE 
022056Z AUTO 00000KT 22/18 A3004 RMK AO1 SLP171 T02170183 58002
KPIT 
19nm NW 
022151Z 33009KT 10SM SCT065 31/14 A2997 RMK AO2 SLP145 T03110144
KAFJ 
19nm SW 
022056Z AUTO 34005KT 10SM BKN070 BKN095 30/16 A3000 RMK AO2 SLP151 T03000161 56010
TAF
KAGC 
2nm NE 
021737Z 0218/0318 36005KT P6SM SCT050
KPIT 
19nm NW 
021737Z 0218/0324 34008KT P6SM SCT050
NOTAMs
Click for the latest NOTAMs
NOTAMs are issued by the DoD/FAA and will open in a separate window not controlled by AirNav.

 

 
 

Would you like to see your business listed on this page?

 If your business provides an interesting product or service to pilots, flight crews, aircraft, or users of the Jefferson Hospital Heliport, you should consider listing it here.  To start the listing process, click on the button below
 
Add a business
 

Other Pages about Jefferson Hospital Heliport

Update a link
 
Copyright © AirNav, LLC. All rights reserved. Privacy Policy  Contact